User: anonymous   Login
Location: Camp Creek
(33.9000°N, 111.8167°W)
Time: 00:37:39
(UTC-07:00)
Language:

Cosmos 2322 Rocket - Orbit

View from above orbital plane
View from above orbital plane
View from above satellite
View from above satellite

Ground track
Ground track

The orbit data is extracted from the following two-line orbital elements,

1 23705U 95058B   14330.01759259  .00000375  00000-0  21804-3 0  4025
2 23705 071.0215 188.8740 0014645 281.0358 078.9117 14.15029237985030
Epoch (UTC): 26 November 2014 00:25:20
Eccentricity: 0.0014645
inclination: 71.0215°
perigee height: 831 km
apogee height: 853 km
right ascension of ascending node: 188.8740°
argument of perigee: 281.0358°
revolutions per day: 14.15029237
mean anomaly at epoch: 78.9117°
orbit number at epoch: 98503

The dashed part of the orbit path shows where the satellite is in the earth's shadow,  

DLR